This demonstration page uses our WeatherBlox Daily Observations layout. Learn more.

Left ArrowRight Arrow

53.62937, 11.41316

Hourly Observations for July 21, 2016

Temp ( °F °C ) Dew Point ( °F °C ) Humidity (%) Winds ( mph kmh ) Pressure ( in mb ) Visibility ( mi km ) Precip ( " mm )
6:20 am 06:20 Mostly Sunny 63 17 57 14 83 83 ENE 7 11 29.94 1014 7 11 N/A
6:50 am 06:50 Mostly Sunny 64 18 57 14 78 78 E 8 13 29.94 1014 7 11 N/A
7:20 am 07:20 Mostly Sunny 66 19 59 15 78 78 E 7 11 29.94 1014 7 11 N/A
7:50 am 07:50 Mostly Sunny 68 20 59 15 73 73 E 7 11 29.94 1014 7 11 N/A
8:20 am 08:20 Partly Cloudy with Light Showers 68 20 59 15 73 73 E 8 13 29.94 1014 30 48 N/A
8:50 am 08:50 Mostly Cloudy 64 18 61 16 88 88 ENE 8 13 29.94 1014 30 48 N/A
9:20 am 09:20 Mostly Cloudy 66 19 63 17 88 88 E 9 15 29.94 1014 30 48 N/A
9:50 am 09:50 Mostly Cloudy 68 20 64 18 88 88 E 6 9 29.94 1014 30 48 N/A
10:50 am 10:50 Mostly Sunny 73 23 64 18 74 74 E 6 9 29.97 1015 7 11 N/A
11:20 am 11:20 Mostly Sunny 73 23 63 17 69 69 E 8 13 29.97 1015 7 11 N/A
11:50 am 11:50 Mostly Sunny 73 23 64 18 74 74 ESE 8 13 29.97 1015 7 11 N/A
12:20 pm 12:20 Mostly Sunny 75 24 64 18 69 69 ESE 9 15 29.94 1014 7 11 N/A
12:50 pm 12:50 Mostly Sunny 77 25 64 18 65 65 SE 7 11 29.94 1014 7 11 N/A
1:20 pm 13:20 Mostly Sunny 79 26 64 18 61 61 ESE 8 13 29.94 1014 7 11 N/A
1:50 pm 13:50 Mostly Sunny 82 28 64 18 55 55 VRB 6 9 29.94 1014 7 11 N/A
2:20 pm 14:20 Mostly Sunny 82 28 63 17 51 51 SE 7 11 29.94 1014 7 11 N/A
2:50 pm 14:50 Mostly Sunny 81 27 61 16 51 51 SE 6 9 29.94 1014 7 11 N/A
3:20 pm 15:20 Mostly Sunny 82 28 61 16 48 48 SSE 5 7 29.94 1014 7 11 N/A
3:50 pm 15:50 Mostly Sunny 81 27 59 15 48 48 VRB 3 6 29.94 1014 7 11 N/A
4:20 pm 16:20 Mostly Sunny 84 29 61 16 45 45 VRB 5 7 29.94 1014 7 11 N/A
4:50 pm 16:50 Mostly Sunny 84 29 59 15 43 43 SSE 6 9 29.94 1014 7 11 N/A
5:20 pm 17:20 Mostly Sunny 86 30 59 15 40 40 VRB 2 4 29.94 1014 7 11 N/A
5:50 pm 17:50 Mostly Sunny 86 30 61 16 43 43 VRB 3 6 29.91 1013 7 11 N/A
6:20 pm 18:20 Mostly Sunny 86 30 61 16 43 43 ENE 5 7 29.91 1013 7 11 N/A
6:50 pm 18:50 Mostly Sunny 84 29 59 15 43 43 E 7 11 29.91 1013 7 11 N/A

Powered by AerisWeather